When you browse on this site, cookies collect data to enhance your experience and personalize the content and advertising you see.
Visit our Privacy Policy to learn more. By continuing to use the site, you agree to this use of cookies and data.
  • Em Portugal
  • Lista de países
  • Para 7 dias
  • Temperatura da água
  • Mapas de satélite
  • Mapa do tempo
  • Widgets de tempo
  • user-avatar
    Iniciar Sessão

    Previsão horária em Babruysk

    Hoje, 18 Fevereiro, Segunda-feira

    Tempo Temperatura Precipitação Vento Pressão Humidade
    00:00 -2°C° 0 mm 3 m/s 751 mmHg 89%
    01:00 -2°C° 0 mm 3 m/s 752 mmHg 90%
    02:00 -4°C° 0 mm 2 m/s 752 mmHg 92%
    03:00 -4°C° 0 mm 2 m/s 752 mmHg 92%
    04:00 -5°C° 0 mm 2 m/s 753 mmHg 93%
    05:00 -5°C° 0 mm 2 m/s 753 mmHg 93%
    06:00 -5°C° 0 mm 2 m/s 753 mmHg 93%
    07:00 -5°C° 0 mm 2 m/s 754 mmHg 92%
    08:00 -5°C° 0 mm 2 m/s 754 mmHg 91%
    09:00 -4°C° 0 mm 2 m/s 754 mmHg 88%
    10:00 -3°C° 0 mm 2 m/s 754 mmHg 84%
    11:00 +1°C° 0 mm 1 m/s 755 mmHg 80%
    12:00 +1°C° 0 mm 1 m/s 755 mmHg 77%
    13:00 +2°C° 0 mm 1 m/s 755 mmHg 74%
    14:00 +3°C° 0 mm 1 m/s 755 mmHg 70%
    15:00 +2°C° 0 mm 1 m/s 755 mmHg 73%
    16:00 +1°C° 0 mm 1 m/s 754 mmHg 76%
    17:00 0°C° 0 mm 1 m/s 754 mmHg 79%
    18:00 -2°C° 0 mm 0 m/s 754 mmHg 80%
    19:00 -2°C° 0 mm 0 m/s 755 mmHg 81%
    20:00 -3°C° 0 mm 0 m/s 755 mmHg 82%
    21:00 -2°C° 0 mm 1 m/s 755 mmHg 82%
    22:00 -2°C° 0 mm 1 m/s 755 mmHg 83%
    23:00 -2°C° 0 mm 1 m/s 755 mmHg 83%

    Amanhã, 19 Fevereiro, Terça-feira

    Tempo Temperatura Precipitação Vento Pressão Humidade
    00:00 -4°C° 0 mm 2 m/s 755 mmHg 84%
    01:00 -5°C° 0 mm 2 m/s 755 mmHg 84%
    02:00 -5°C° 0 mm 2 m/s 755 mmHg 85%
    03:00 -5°C° 0 mm 2 m/s 754 mmHg 84%
    04:00 -6°C° 0 mm 3 m/s 754 mmHg 83%
    05:00 -6°C° 0 mm 3 m/s 754 mmHg 83%
    06:00 -6°C° 0 mm 3 m/s 753 mmHg 82%
    07:00 -5°C° 0 mm 3 m/s 753 mmHg 82%
    08:00 -5°C° 0 mm 3 m/s 753 mmHg 81%
    09:00 -4°C° 0 mm 3 m/s 752 mmHg 79%
    10:00 -2°C° 0 mm 4 m/s 752 mmHg 77%
    11:00 -1°C° 0 mm 4 m/s 751 mmHg 75%
    12:00 0°C° 0 mm 4 m/s 750 mmHg 76%
    13:00 +1°C° 0 mm 4 m/s 750 mmHg 77%
    14:00 +2°C° 0 mm 5 m/s 749 mmHg 78%
    15:00 +1°C° 0 mm 5 m/s 748 mmHg 81%
    16:00 +1°C° 0 mm 4 m/s 748 mmHg 83%
    17:00 +1°C° 0 mm 4 m/s 747 mmHg 85%
    18:00 +1°C° 0 mm 4 m/s 746 mmHg 86%
    19:00 0°C° 0 mm 5 m/s 746 mmHg 87%
    20:00 0°C° 0 mm 5 m/s 745 mmHg 88%
    21:00 0°C° 0 mm 5 m/s 745 mmHg 89%
    22:00 0°C° 0 mm 4 m/s 744 mmHg 90%
    23:00 0°C° 0 mm 4 m/s 744 mmHg 90%

    Depois de amanhã, 20 Fevereiro, Quarta-feira

    Tempo Temperatura Precipitação Vento Pressão Humidade
    00:00 -1°C° 0 mm 4 m/s 744 mmHg 90%
    01:00 -1°C° 0 mm 4 m/s 744 mmHg 91%
    02:00 -1°C° 0 mm 4 m/s 743 mmHg 91%
    03:00 -1°C° 0.1 mm 4 m/s 743 mmHg 91%
    04:00 -1°C° 0.1 mm 4 m/s 743 mmHg 92%
    05:00 -1°C° 0.1 mm 4 m/s 742 mmHg 93%
    06:00 -1°C° 0.2 mm 4 m/s 742 mmHg 93%
    07:00 -1°C° 0.2 mm 4 m/s 743 mmHg 94%
    08:00 -1°C° 0.2 mm 4 m/s 743 mmHg 94%
    09:00 0°C° 0.1 mm 4 m/s 743 mmHg 93%
    10:00 0°C° 0.1 mm 4 m/s 743 mmHg 93%
    11:00 +1°C° 0.1 mm 5 m/s 743 mmHg 92%
    12:00 +1°C° 0.1 mm 5 m/s 743 mmHg 89%
    13:00 +1°C° 0.1 mm 5 m/s 743 mmHg 86%
    14:00 +2°C° 0.1 mm 5 m/s 743 mmHg 84%
    15:00 +1°C° 0 mm 5 m/s 743 mmHg 83%
    16:00 +1°C° 0 mm 5 m/s 743 mmHg 82%
    17:00 +1°C° 0 mm 5 m/s 742 mmHg 81%
    18:00 +1°C° 0 mm 5 m/s 742 mmHg 82%
    19:00 -1°C° 0 mm 6 m/s 742 mmHg 82%
    20:00 -1°C° 0 mm 6 m/s 742 mmHg 82%
    21:00 -1°C° 0.1 mm 6 m/s 743 mmHg 79%
    22:00 -2°C° 0.1 mm 6 m/s 743 mmHg 76%
    23:00 -2°C° 0.1 mm 6 m/s 743 mmHg 73%

    21 Fevereiro, Quinta-feira

    Tempo Temperatura Precipitação Vento Pressão Humidade
    00:00 -3°C° 0 mm 6 m/s 743 mmHg 72%
    01:00 -4°C° 0 mm 6 m/s 744 mmHg 71%
    02:00 -5°C° 0 mm 6 m/s 744 mmHg 70%
    03:00 -5°C° 0 mm 6 m/s 745 mmHg 70%
    04:00 -5°C° 0 mm 6 m/s 745 mmHg 69%
    05:00 -5°C° 0 mm 6 m/s 745 mmHg 69%
    06:00 -5°C° 0 mm 6 m/s 746 mmHg 68%
    07:00 -5°C° 0 mm 6 m/s 746 mmHg 67%
    08:00 -5°C° 0 mm 6 m/s 746 mmHg 66%
    09:00 -5°C° 0 mm 6 m/s 746 mmHg 65%
    10:00 -5°C° 0 mm 6 m/s 747 mmHg 64%
    11:00 -4°C° 0 mm 6 m/s 747 mmHg 64%
    12:00 -4°C° 0 mm 6 m/s 747 mmHg 63%
    13:00 -4°C° 0 mm 6 m/s 747 mmHg 63%
    14:00 -4°C° 0 mm 6 m/s 747 mmHg 62%
    15:00 -4°C° 0 mm 5 m/s 748 mmHg 63%
    16:00 -5°C° 0 mm 5 m/s 748 mmHg 64%
    17:00 -4°C° 0 mm 4 m/s 748 mmHg 64%
    18:00 -4°C° 0 mm 4 m/s 749 mmHg 64%
    19:00 -4°C° 0 mm 4 m/s 749 mmHg 63%
    20:00 -5°C° 0 mm 4 m/s 750 mmHg 63%
    21:00 -5°C° 0 mm 4 m/s 750 mmHg 63%
    22:00 -5°C° 0 mm 4 m/s 751 mmHg 64%
    23:00 -7°C° 0 mm 4 m/s 751 mmHg 64%

    22 Fevereiro, Sexta-feira

    Tempo Temperatura Precipitação Vento Pressão Humidade
    00:00 -7°C° 0 mm 4 m/s 752 mmHg 64%
    01:00 -7°C° 0 mm 4 m/s 752 mmHg 65%
    02:00 -7°C° 0 mm 5 m/s 753 mmHg 65%
    03:00 -8°C° 0 mm 5 m/s 753 mmHg 64%
    04:00 -8°C° 0 mm 5 m/s 754 mmHg 64%
    05:00 -10°C° 0 mm 6 m/s 755 mmHg 63%
    06:00 -10°C° 0 mm 6 m/s 756 mmHg 63%
    07:00 -11°C° 0 mm 6 m/s 756 mmHg 62%
    08:00 -11°C° 0 mm 6 m/s 757 mmHg 62%
    09:00 -10°C° 0 mm 6 m/s 758 mmHg 58%
    10:00 -10°C° 0 mm 6 m/s 759 mmHg 55%
    11:00 -9°C° 0 mm 6 m/s 759 mmHg 51%
    12:00 -8°C° 0 mm 6 m/s 760 mmHg 48%
    13:00 -8°C° 0 mm 6 m/s 760 mmHg 46%
    14:00 -6°C° 0 mm 6 m/s 760 mmHg 43%
    15:00 -6°C° 0 mm 6 m/s 761 mmHg 45%
    16:00 -6°C° 0 mm 6 m/s 761 mmHg 47%
    17:00 -7°C° 0 mm 5 m/s 761 mmHg 49%
    18:00 -7°C° 0 mm 5 m/s 762 mmHg 52%
    19:00 -7°C° 0 mm 5 m/s 762 mmHg 54%
    20:00 -7°C° 0 mm 5 m/s 763 mmHg 57%
    21:00 -8°C° 0 mm 4 m/s 763 mmHg 59%
    22:00 -8°C° 0 mm 4 m/s 763 mmHg 60%
    23:00 -8°C° 0 mm 4 m/s 764 mmHg 62%

    23 Fevereiro, Sábado

    Tempo Temperatura Precipitação Vento Pressão Humidade
    00:00 -8°C° 0 mm 3 m/s 764 mmHg 65%
    01:00 -8°C° 0 mm 3 m/s 764 mmHg 67%
    02:00 -8°C° 0 mm 3 m/s 764 mmHg 69%
    03:00 -8°C° 0 mm 3 m/s 764 mmHg 71%
    04:00 -9°C° 0 mm 3 m/s 764 mmHg 73%
    05:00 -8°C° 0 mm 2 m/s 764 mmHg 75%
    06:00 -8°C° 0 mm 2 m/s 764 mmHg 75%
    07:00 -8°C° 0 mm 2 m/s 764 mmHg 75%
    08:00 -8°C° 0 mm 2 m/s 764 mmHg 75%
    09:00 -7°C° 0 mm 2 m/s 763 mmHg 70%
    10:00 -6°C° 0 mm 2 m/s 763 mmHg 64%
    11:00 -5°C° 0 mm 2 m/s 763 mmHg 59%
    12:00 -5°C° 0 mm 2 m/s 762 mmHg 58%
    13:00 -6°C° 0 mm 3 m/s 762 mmHg 56%
    14:00 -5°C° 0 mm 3 m/s 761 mmHg 54%
    15:00 -5°C° 0.1 mm 3 m/s 761 mmHg 62%
    16:00 -6°C° 0.1 mm 3 m/s 760 mmHg 70%
    17:00 -6°C° 0.1 mm 3 m/s 760 mmHg 78%
    18:00 -5°C° 0 mm 2 m/s 760 mmHg 80%
    19:00 -5°C° 0 mm 2 m/s 760 mmHg 82%
    20:00 -5°C° 0 mm 2 m/s 759 mmHg 85%
    21:00 -5°C° 0 mm 2 m/s 759 mmHg 86%
    22:00 -5°C° 0 mm 2 m/s 759 mmHg 87%
    23:00 -5°C° 0 mm 2 m/s 759 mmHg 88%
    Mostrar mais